This is the latest recevied weather packets stored in our database for station/object NEWPRT. If no packets are shown the sender has not sent any weather packets the latest 1 day(s).
| Time | Temp. | Humidity | Pressure | Rain* | Wind** | Luminosity | Snow |
|---|---|---|---|---|---|---|---|
| 1778046532 | - | 68% | 1018.6 hPa | 0 mm | - | - | - |
| 1778045886 | - | 68% | 1018.5 hPa | 0 mm | - | - | - |
| 1778045563 | - | 68% | 1018.4 hPa | 0 mm | - | - | - |
| 1778045241 | - | 67% | 1018.5 hPa | 0 mm | - | - | - |
| 1778044917 | - | 68% | 1018.5 hPa | 0 mm | - | - | - |
| 1778044594 | - | 68% | 1018.4 hPa | 0 mm | - | - | - |
| 1778044272 | - | 67% | 1018.5 hPa | 0 mm | - | - | - |
| 1778043948 | - | 67% | 1018.5 hPa | 0 mm | - | - | - |
| 1778043625 | - | 68% | 1018.3 hPa | 0 mm | - | - | - |
| 1778043303 | - | 68% | 1018.2 hPa | 0 mm | - | - | - |
| 1778042979 | - | 68% | 1018.3 hPa | 0 mm | - | - | - |
| 1778042656 | - | 68% | 1018.4 hPa | 0 mm | - | - | - |
| 1778042333 | - | 67% | 1018.3 hPa | 0 mm | - | - | - |
| 1778042010 | - | 68% | 1018.1 hPa | 0 mm | - | - | - |
| 1778041364 | - | 69% | 1018 hPa | 0 mm | - | - | - |
| 1778041041 | - | 69% | 1017.9 hPa | 0 mm | - | - | - |
| 1778040718 | - | 66% | 1017.5 hPa | 0 mm | - | - | - |
| 1778040395 | - | 66% | 1017.8 hPa | 0 mm | - | - | - |
| 1778040072 | - | 69% | 1017.6 hPa | 0 mm | - | - | - |
| 1778039750 | - | 69% | 1017.6 hPa | 0 mm | - | - | - |
| 1778039426 | - | 66% | 1017.3 hPa | 0 mm | - | - | - |
| 1778038781 | - | 68% | 1017.4 hPa | 0 mm | - | - | - |
| 1778038457 | - | 68% | 1017.5 hPa | 0 mm | - | - | - |
| 1778038136 | - | 60% | 1017.3 hPa | 0 mm | - | - | - |
| 1778037811 | - | 60% | 1017 hPa | 0 mm | - | - | - |
* Rain latest hour (hover to see other rain measurements)
** Current wind speed in m/s (hover to see current wind gust speed)